Total_Precipitation_Accumulation
0.90 0.99 0.99 0.91 0.94 0.98 0.95 0.89 0.84 0.87 0.92 1.00 1.04 1.19 1.34 1.52 1.71 1.86 1.89 1.90 1.92 1.91 1.84 1.95 2.07 2.16 2.28 2.30 2.30 2.19 2.05 1.98 1.90 1.76 1.57 1.46 1.59 1.60 1.51 1.45 1.32 1.25 1.25
0.90 0.93 0.95 0.85 0.83 0.87 0.86 0.89 0.78 0.73 0.74 0.81 0.94 1.14 1.25 1.34 1.39 1.47 1.55 1.62 1.67 1.73 1.72 1.69 1.76 1.86 2.02 2.17 2.26 2.21 2.20 2.08 1.99 1.99 1.83 1.59 1.49 1.56 1.59 1.66 1.56 1.32 1.28
1.02 1.09 1.01 0.86 0.85 0.88 0.83 0.88 0.80 0.72 0.72 0.76 0.89 1.04 1.10 1.15 1.18 1.20 1.31 1.41 1.43 1.44 1.50 1.47 1.47 1.55 1.70 1.85 1.95 2.02 2.14 2.16 2.17 2.10 2.04 1.87 1.63 1.62 1.67 1.68 1.69 1.73 1.50
1.26 1.23 1.08 0.96 0.88 0.84 0.82 0.84 0.80 0.77 0.78 0.80 0.95 1.03 1.05 1.02 1.11 1.14 1.20 1.23 1.19 1.15 1.19 1.19 1.22 1.27 1.37 1.52 1.67 1.88 2.06 2.15 2.22 2.20 2.11 1.90 1.74 1.71 1.68 1.69 1.77 1.84 1.81
1.20 1.12 1.03 0.93 0.81 0.75 0.78 0.75 0.78 0.83 0.82 0.84 0.88 0.99 1.02 1.00 1.05 1.12 1.10 1.03 1.03 1.02 0.96 0.86 0.88 0.96 1.00 1.10 1.14 1.43 1.68 1.90 2.02 2.08 2.06 1.92 1.72 1.63 1.50 1.53 1.66 1.83 1.90
1.11 0.99 0.87 0.80 0.79 0.72 0.68 0.65 0.65 0.68 0.70 0.72 0.77 0.93 1.03 0.91 1.02 1.01 0.93 0.86 0.83 0.88 0.85 0.77 0.74 0.79 0.73 0.70 0.74 0.96 1.25 1.44 1.62 1.80 1.87 1.75 1.61 1.55 1.60 1.59 1.59 1.64 1.67
0.88 0.81 0.71 0.66 0.64 0.58 0.55 0.56 0.59 0.61 0.62 0.65 0.67 0.82 0.91 0.97 0.91 0.76 0.81 0.80 0.81 0.85 0.87 0.89 0.80 0.75 0.85 0.75 0.69 0.76 0.84 0.95 1.11 1.38 1.61 1.60 1.70 1.63 1.54 1.49 1.51 1.55 1.54
0.78 0.76 0.68 0.61 0.56 0.52 0.48 0.50 0.60 0.62 0.59 0.61 0.63 0.65 0.73 0.87 0.81 0.66 0.70 0.69 0.80 0.89 0.92 1.00 1.00 0.94 0.92 0.99 0.92 0.93 0.90 0.83 0.91 0.83 1.03 1.41 1.56 1.62 1.58 1.62 1.72 1.66 1.52
0.57 0.62 0.56 0.47 0.50 0.54 0.51 0.55 0.59 0.59 0.62 0.61 0.63 0.64 0.69 0.74 0.72 0.65 0.67 0.72 0.85 0.88 0.84 0.96 1.00 0.95 1.01 1.06 1.17 1.23 1.15 1.00 1.11 1.11 1.02 1.13 1.28 1.34 1.45 1.56 1.63 1.57 1.52
0.36 0.41 0.41 0.38 0.41 0.49 0.58 0.64 0.60 0.56 0.61 0.62 0.59 0.56 0.59 0.60 0.67 0.59 0.69 0.79 0.84 0.85 0.86 0.92 1.07 1.00 0.98 0.95 1.03 1.17 1.16 1.02 0.90 0.93 0.90 0.80 0.74 0.85 1.05 1.23 1.52 1.64 1.59
0.30 0.32 0.32 0.32 0.35 0.44 0.50 0.48 0.48 0.50 0.53 0.54 0.56 0.54 0.53 0.60 0.72 0.72 0.78 0.79 0.83 0.89 0.97 1.02 1.00 1.09 0.93 0.89 0.89 0.91 1.00 0.99 0.96 1.01 1.08 0.97 0.84 0.80 0.84 0.93 1.15 1.39 1.54
0.26 0.28 0.27 0.25 0.25 0.28 0.35 0.39 0.42 0.43 0.45 0.44 0.45 0.44 0.47 0.58 0.66 0.68 0.71 0.75 0.83 0.82 0.87 0.88 0.85 0.94 0.80 0.71 0.66 0.72 0.79 0.84 0.92 1.05 1.04 1.00 0.98 0.93 0.91 0.95 1.01 1.13 1.24
0.27 0.26 0.25 0.24 0.24 0.26 0.30 0.34 0.37 0.41 0.43 0.41 0.38 0.39 0.43 0.47 0.55 0.58 0.58 0.57 0.60 0.62 0.59 0.70 0.72 0.70 0.65 0.58 0.62 0.67 0.68 0.70 0.81 0.90 0.92 0.89 0.88 0.92 0.93 0.94 0.98 1.03 1.03
0.23 0.23 0.23 0.24 0.25 0.25 0.28 0.33 0.39 0.39 0.36 0.35 0.37 0.39 0.44 0.47 0.47 0.47 0.49 0.49 0.48 0.52 0.51 0.54 0.56 0.54 0.54 0.56 0.59 0.63 0.68 0.72 0.75 0.78 0.79 0.82 0.83 0.89 0.95 0.94 0.95 1.02 1.10
0.20 0.19 0.20 0.21 0.24 0.24 0.22 0.23 0.30 0.33 0.31 0.33 0.35 0.39 0.43 0.46 0.44 0.41 0.40 0.45 0.50 0.54 0.60 0.56 0.53 0.54 0.55 0.62 0.65 0.64 0.66 0.70 0.69 0.69 0.71 0.73 0.73 0.79 0.84 0.85 0.89 0.95 1.00
0.21 0.20 0.21 0.21 0.22 0.22 0.22 0.22 0.25 0.25 0.27 0.28 0.26 0.27 0.26 0.26 0.29 0.29 0.30 0.34 0.40 0.46 0.60 0.67 0.69 0.75 0.78 0.78 0.75 0.66 0.60 0.60 0.65 0.71 0.71 0.72 0.73 0.72 0.76 0.80 0.84 0.92 0.97
0.25 0.24 0.22 0.22 0.20 0.20 0.22 0.25 0.27 0.24 0.20 0.20 0.19 0.17 0.19 0.21 0.23 0.24 0.24 0.28 0.31 0.38 0.58 0.74 0.76 0.75 0.71 0.69 0.65 0.58 0.52 0.49 0.51 0.60 0.70 0.77 0.79 0.79 0.82 0.87 0.87 0.86 0.87
0.31 0.32 0.27 0.23 0.23 0.23 0.24 0.28 0.34 0.36 0.30 0.22 0.20 0.19 0.18 0.19 0.20 0.22 0.29 0.36 0.34 0.37 0.55 0.65 0.68 0.66 0.59 0.53 0.46 0.41 0.39 0.38 0.37 0.42 0.49 0.58 0.74 0.86 0.94 0.97 0.99 1.01 1.00
0.32 0.35 0.34 0.34 0.31 0.29 0.30 0.33 0.37 0.36 0.29 0.25 0.22 0.20 0.19 0.19 0.19 0.20 0.24 0.30 0.31 0.33 0.36 0.38 0.40 0.42 0.41 0.36 0.33 0.33 0.34 0.33 0.34 0.36 0.40 0.45 0.56 0.71 0.89 0.99 1.02 1.07 1.07
0.23 0.30 0.34 0.37 0.36 0.33 0.34 0.34 0.36 0.34 0.28 0.25 0.24 0.21 0.21 0.21 0.21 0.21 0.22 0.26 0.29 0.30 0.29 0.29 0.31 0.32 0.31 0.30 0.29 0.31 0.34 0.35 0.33 0.36 0.42 0.48 0.59 0.65 0.71 0.82 0.97 1.00 0.94
0.16 0.19 0.23 0.28 0.32 0.31 0.30 0.30 0.34 0.36 0.30 0.27 0.25 0.24 0.25 0.26 0.28 0.25 0.23 0.25 0.27 0.29 0.30 0.32 0.34 0.34 0.33 0.36 0.36 0.36 0.36 0.38 0.37 0.38 0.42 0.49 0.58 0.68 0.74 0.77 0.80 0.84 0.89
0.15 0.16 0.17 0.20 0.25 0.28 0.28 0.26 0.29 0.33 0.33 0.30 0.29 0.29 0.30 0.29 0.30 0.30 0.30 0.29 0.30 0.32 0.34 0.38 0.41 0.40 0.37 0.39 0.42 0.43 0.43 0.43 0.42 0.43 0.46 0.48 0.51 0.58 0.67 0.75 0.78 0.79 0.81
0.14 0.14 0.16 0.19 0.22 0.25 0.27 0.26 0.26 0.29 0.31 0.31 0.29 0.29 0.28 0.28 0.29 0.30 0.33 0.33 0.34 0.36 0.39 0.46 0.48 0.46 0.45 0.45 0.46 0.45 0.46 0.47 0.47 0.47 0.51 0.53 0.52 0.54 0.60 0.65 0.66 0.69 0.72
0.17 0.19 0.21 0.23 0.23 0.22 0.23 0.25 0.27 0.27 0.29 0.30 0.31 0.31 0.31 0.30 0.29 0.29 0.30 0.31 0.32 0.34 0.37 0.40 0.44 0.46 0.49 0.52 0.53 0.51 0.51 0.53 0.49 0.48 0.55 0.63 0.63 0.61 0.63 0.66 0.66 0.68 0.74
0.22 0.22 0.22 0.24 0.25 0.24 0.24 0.24 0.25 0.27 0.28 0.31 0.33 0.34 0.33 0.32 0.33 0.32 0.31 0.32 0.33 0.33 0.34 0.36 0.37 0.41 0.46 0.53 0.54 0.53 0.58 0.60 0.57 0.50 0.49 0.57 0.61 0.63 0.67 0.70 0.73 0.79 0.88
0.24 0.24 0.25 0.24 0.24 0.25 0.26 0.28 0.28 0.31 0.31 0.32 0.33 0.33 0.33 0.34 0.35 0.36 0.37 0.36 0.35 0.33 0.33 0.35 0.38 0.38 0.40 0.47 0.54 0.59 0.60 0.56 0.59 0.62 0.56 0.56 0.61 0.65 0.72 0.79 0.83 0.91 0.98